星链-4571 (STARLINK-4571 )

导读

STARLINK-4571是美国太空探索技术公司SpaceX星链(Starlink)项目的一颗卫星,于2022年8月31日发射升空。星链项目旨在构建全球低轨卫星互联网,为地面偏远地区、航空航海等场景提供宽带服务。作为星链星座的组成部分,STARLINK-4571运行于近地轨道,助力提升星座网络覆盖与通信容量,支撑全球卫星互联网服务的扩展。

基本信息
目录编号:
53688
目录名称:
STARLINK-4571
国际标识:
2022-105AS
轨道中心:
EARTH
卫星名称:
星链-4571
卫星全名:
星链-4571 (STARLINK-4571 )
卫星状态:
在轨 (已飞行1474 天)
发射日期:
2022-08-31 UTC
国别 :
美国 (US)
星等 :
--
该卫星已列入 空间交会检测服务 Space Conjunction Data Service (SCDS) ,当前飞行风险评估等级: 无高风险
轨道信息
数据来源 国际轨道数据
星历时间: 2026-09-12T10:48:30+0800
22小时前
查看轨道信息
半长轴: 6927.671km
偏心率: 0.0002886
轨道倾角: 97.285°
近地点辐角 71.852°
升交点赤经 129.345°
平近点角 288.303°
近地点: 547.534km
远地点: 551.534km
周期: 95.640分钟
每日圈数: 15.056426
详细信息
固有亮度:
5
最大亮度:
2.5
卫星平台:
Starlink v1.5
覆盖范围:
全球
运营商:
太空探索技术公司
运营商所在国:
美国
制造商(研发单位):
太空探索技术公司
制造商所在国:
美国
使用方式:
暂无
卫星简介
星链(Starlink)计划是由太空探索技术公司(SpaceX)提出的一个巨型低轨卫星互联网星座项目,计划在2019年至2024年间在太空搭建由约1.2万颗卫星组成的“星链”网络,其中1584颗将部署在地球上空550千米处的近地轨道,并从2020年开始工作。该卫星仍在工作。
2D轨道图
3D轨道图
轨道高度分析图
轨道倾角分析图
轨道综合分析图
查看轨道综合分析图
与全量物体交会距离演化趋势
与全量物体交会风险概率演化趋势